Regional Weather Roundup
Issued by NWS

Home | Current Version | Previous Version | Text Only | Print | Product List | Glossary Off
Versions: 1 2 3 4 5 6 7 8 9 10 11 12 13 14 15 16 17 18 19 20 21 22 23 24 25 26 27 28 29 30 31 32 33 34 35 36 37 38 39 40 41 42 43 44 45 46 47 48 49 50

000
ASUS43 KBIS 251810
RWRND

NORTH DAKOTA REGIONAL WEATHER ROUNDUP
NATIONAL WEATHER SERVICE BISMARCK ND
100 PM CDT SAT APR 25 2015

NOTE: "FAIR" INDICATES FEW OR NO CLOUDS BELOW 12,000 FEET WITH NO
SIGNIFICANT WEATHER AND/OR OBSTRUCTIONS TO VISIBILITY.


NDZ001>003-009>011-017-251900-
NORTHWEST NORTH DAKOTA

CITY           SKY/WX    TMP DP  RH WIND       PRES   REMARKS
WILLISTON      CLOUDY    50  42  74 E17       29.74S
6HR MIN TEMP:  46; 6HR MAX TEMP:  52; 6HR PCP: TRACE;

MINOT          CLOUDY    51  39  63 E16G24    29.80F
MINOT AFB      CLOUDY    51  44  77 SE13      29.80F
$$

NDZ018>021-031>035-040>046-251900-
SOUTHWEST NORTH DAKOTA

CITY           SKY/WX    TMP DP  RH WIND       PRES   REMARKS
BISMARCK       CLOUDY    48  42  80 SE16      29.81S
6HR MIN TEMP:  44; 6HR MAX TEMP:  49;

DICKINSON      CLOUDY    45  43  93 SE15      29.73S FOG
GARRISON         N/A     51  42  71 SE21      29.79S
6HR MIN TEMP:  42; 6HR MAX TEMP:  51;

HETTINGER ARPT CLOUDY    44  42  93 SE13      29.75S FOG
$$

NDZ004>008-012>016-024-026-027-054-251900-
NORTHEAST NORTH DAKOTA

CITY           SKY/WX    TMP DP  RH WIND       PRES   REMARKS
GRAND FORKS    MOSUNNY   56  37  49 SE12G18   29.90F
GRND FRKS AFB  CLOUDY    55  37  51 E9G18     29.89F
DEVILS LAKE    CLOUDY    50  37  62 SE16      29.86F
$$

NDZ022-023-025-028>030-036>039-047>053-251900-
SOUTHEAST NORTH DAKOTA

CITY           SKY/WX    TMP DP  RH WIND       PRES   REMARKS
FARGO          CLOUDY    49  37  63 SE8       29.90S
6HR MIN TEMP:  43; 6HR MAX TEMP:  49;

JAMESTOWN      CLOUDY    46  39  76 E13       29.85S
$$




USA.gov is the U.S. government's official web portal to all federal, state and local government web resources and services.